Location: Dallas
(32.7833°N, 96.8000°W)
Time: 00:32:32
(UTC-06:00)

Envisat - Pass Details

Date: 27 January 2021
Orbit: 764 x 766 km, 98.1° (Epoch: 06 March)

Event Time Altitude Azimuth Distance (km) Brightness Sun altitude
Rises 18:33:43 0° 205° (SSW) 3,217 6.9 -8.4°
Reaches altitude 10° 18:36:44 10° 224° (SW) 2,296 6.5 -9.0°
Maximum altitude 18:40:07 18° 266° (W) 1,817 6.2 -9.7°
Drops below altitude 10° 18:43:30 10° 308° (NW) 2,305 6.0 -10.4°
Sets 18:46:34 0° 327° (NNW) 3,236 6.5 -11.0°
